Track VESSELSAT 1 now! 10-day predictions VESSELSAT 1 is classified as:
1 37840U 11058C 26258.25526495 .00000337 00000-0 38961-4 0 9992 2 37840 19.9609 220.0267 0013739 152.2197 207.8943 14.11448299770670